Terug naar catalogus

WILDFIRE 3

ActiefWetenschapPO
NORAD 57758·PAYLOAD·🇺🇸 United States

Gelanceerd Sep 2, 2023 vanaf Vandenberg Space Force Base

Loading…

Volgende Passages (komende 24 uur)

TLE

VersSource: Space-Track

Epoch: Sep 14, 2026, 00:23 UTC

1 57758U 23133C   26257.01617542  .00000092  00000-0  69654-4 0  9997
2 57758  80.9933 280.5433 0009659 112.5680 247.6500 13.86290961153405

Volg WILDFIRE 3 in realtime met AllMySat

Download on the App Store